Change the Weather History Date:

Saturday, April 6, 2013

  Actual Average Record
Temperature  
Mean Temperature 38 °F -  
Max Temperature 40 °F 57 °F - ()
Min Temperature 35 °F 39 °F - ()
Degree Days  
Heating Degree Days 28    
Moisture  
Dew Point 33 °F    
Average Humidity 81    
Maximum Humidity 100    
Minimum Humidity 63    
Precipitation  
Precipitation 0.00 in 0.12 in - ()
Sea Level Pressure  
Sea Level Pressure 29.94 in    
Wind  
Wind Speed 4 mph ()    
Max Wind Speed 6 mph    
Max Gust Speed 15 mph    
Visibility 4.3 miles    
Events      
T = Trace of Precipitation, MM = Missing Value Source: Averaged Metar Reports

Daily Weather History Graph

Daily Weather History Graph

Search for Another Location

Airport or City:

Trip Planner

Search our weather history database for the weather conditions in past years. The results will help you decide how hot, cold, wet, or windy it might be!

Date:

Astronomy

Apr. 06, 2013 Rise Set
Actual Time 6:36 AM CEST 7:45 PM CEST
Civil Twilight 6:04 AM CEST 8:16 PM CEST
Nautical Twilight 5:26 AM CEST 8:55 PM CEST
Astronomical Twilight 4:46 AM CEST 9:35 PM CEST
Moon 4:27 AM CEST (4/6) 3:40 PM CEST (4/6)
Length of Visible Light 14h 11m
Length of Day
13h 08m
Waning Crescent, 17% of the Moon is Illuminated
Apr 6
Waning Crescent
Apr 10
New
Apr 18
First Quarter
Apr 25
Full
May 2
Last Quarter

Hourly Weather History & Observations

Time (CEST) Temp. Windchill Dew Point Humidity Pressure Visibility Wind Dir Wind Speed Gust Speed Precip Events Conditions
12:20 AM 37.4 °F 33.8 °F 33.8 °F 87% 29.80 in 3.7 mi North 4.6 mph - N/A   Mostly Cloudy
12:50 AM 37.4 °F 33.8 °F 35.6 °F 93% 29.83 in 3.7 mi NNW 4.6 mph - N/A   Overcast
1:20 AM 37.4 °F - 33.8 °F 87% 29.83 in 3.7 mi Variable 2.3 mph - N/A   Mostly Cloudy
1:50 AM 37.4 °F 34.9 °F 33.8 °F 87% 29.83 in 3.7 mi North 3.5 mph - N/A   Mostly Cloudy
2:00 AM 37 °F - 34 °F 83% 29.88 in 4 mi North 4.5 mph - -  
2:20 AM 37.4 °F 34.9 °F 33.8 °F 87% 29.83 in 3.7 mi NW 3.5 mph - N/A   Mostly Cloudy
2:50 AM 37.4 °F - 33.8 °F 87% 29.83 in 3.7 mi Variable 1.2 mph - N/A   Mostly Cloudy
3:20 AM 37.4 °F - 33.8 °F 87% 29.83 in 3.7 mi Variable 2.3 mph - N/A   Mostly Cloudy
3:50 AM 37.4 °F - 33.8 °F 87% 29.83 in 3.1 mi Variable 2.3 mph - N/A   Mostly Cloudy
4:20 AM 37.4 °F 34.9 °F 33.8 °F 87% 29.83 in 3.1 mi North 3.5 mph - N/A   Mostly Cloudy
4:50 AM 37.4 °F 34.9 °F 33.8 °F 87% 29.86 in 3.1 mi NNW 3.5 mph - N/A   Mostly Cloudy
5:00 AM 37 °F - 34 °F 83% 29.91 in 3 mi NNW 4.5 mph - -   Mist
5:20 AM 37.4 °F 32.8 °F 33.8 °F 87% 29.86 in 2.8 mi NNW 5.8 mph - N/A   Mostly Cloudy
5:50 AM 35.6 °F 30.7 °F 35.6 °F 100% 29.86 in - NNW 5.8 mph - N/A   Mostly Cloudy
6:20 AM 35.6 °F 32.8 °F 35.6 °F 100% 29.86 in - NNW 3.5 mph - N/A   Mostly Cloudy
6:50 AM 35.6 °F 31.7 °F 33.8 °F 93% 29.86 in - NW 4.6 mph - N/A   Mostly Cloudy
7:20 AM 35.6 °F 32.8 °F 33.8 °F 93% 29.86 in - NNW 3.5 mph - N/A   Mostly Cloudy
7:50 AM 35.6 °F 32.8 °F 33.8 °F 93% 29.89 in - NNW 3.5 mph - N/A   Mostly Cloudy
8:00 AM 36 °F - 34 °F 90% 29.95 in 2 mi NNW 4.5 mph - -   Mist
8:20 AM 35.6 °F 31.7 °F 33.8 °F 93% 29.89 in - NW 4.6 mph - N/A   Mostly Cloudy
8:50 AM 35.6 °F 32.8 °F 33.8 °F 93% 29.89 in 2.2 mi WNW 3.5 mph - N/A   Mostly Cloudy
9:20 AM 35.6 °F 31.7 °F 32.0 °F 87% 29.92 in 2.5 mi NW 4.6 mph - N/A   Mostly Cloudy
9:50 AM 35.6 °F 32.8 °F 33.8 °F 93% 29.92 in 2.5 mi NNW 3.5 mph - N/A   Mostly Cloudy
10:20 AM 37.4 °F 33.8 °F 32.0 °F 81% 29.92 in - WNW 4.6 mph - N/A   Mostly Cloudy
10:50 AM 37.4 °F 34.9 °F 33.8 °F 87% 29.92 in 2.5 mi NNW 3.5 mph - N/A   Mostly Cloudy
11:00 AM 37 °F - 33 °F 82% 29.99 in 2 mi NNW 4.5 mph - -   Mist
11:20 AM 37.4 °F 33.8 °F 33.8 °F 87% 29.95 in 2.8 mi NW 4.6 mph - N/A   Mostly Cloudy
11:50 AM 37.4 °F 34.9 °F 33.8 °F 87% 29.95 in 3.1 mi WNW 3.5 mph - N/A   Mostly Cloudy
12:20 PM 39.2 °F - 32.0 °F 75% 29.95 in 3.7 mi Variable 2.3 mph - N/A   Mostly Cloudy
12:50 PM 39.2 °F 35.9 °F 32.0 °F 75% 29.95 in 3.7 mi WNW 4.6 mph - N/A   Mostly Cloudy
1:20 PM 39.2 °F 35.9 °F 32.0 °F 75% 29.95 in 3.7 mi WNW 4.6 mph - N/A   Mostly Cloudy
1:50 PM 39.2 °F 35.9 °F 32.0 °F 75% 29.95 in 5.0 mi WNW 4.6 mph - N/A   Mostly Cloudy
2:00 PM 40 °F - 32 °F 63% 30.01 in 5 mi WNW 4.5 mph - -   Overcast
2:20 PM 39.2 °F - 32.0 °F 75% 29.95 in 5.0 mi Variable 2.3 mph - N/A   Mostly Cloudy
2:50 PM 41.0 °F 39.0 °F 32.0 °F 70% 29.98 in 5.0 mi West 3.5 mph 15.0 mph N/A   Mostly Cloudy
3:20 PM 41.0 °F 38.0 °F 32.0 °F 70% 29.95 in 5.0 mi NW 4.6 mph - N/A   Overcast
3:50 PM 41.0 °F 38.0 °F 32.0 °F 70% 29.95 in 5.0 mi WNW 4.6 mph - N/A   Overcast
4:20 PM 41.0 °F 39.0 °F 32.0 °F 70% 29.95 in 5.0 mi West 3.5 mph - N/A   Overcast
4:50 PM 41.0 °F 39.0 °F 32.0 °F 70% 29.98 in 5.0 mi WNW 3.5 mph - N/A   Overcast
5:00 PM 40 °F - 32 °F 65% 30.01 in 5 mi WNW 4.5 mph - -   Overcast
5:20 PM 41.0 °F 39.0 °F 32.0 °F 70% 29.98 in 5.0 mi NW 3.5 mph - N/A   Overcast
5:50 PM 41.0 °F 39.0 °F 32.0 °F 70% 29.98 in 5.6 mi NNW 3.5 mph - N/A   Overcast
6:20 PM 41.0 °F 39.0 °F 32.0 °F 70% 29.98 in 5.6 mi NNW 3.5 mph - N/A   Overcast
6:50 PM 41.0 °F 37.1 °F 32.0 °F 70% 30.01 in 5.6 mi NNW 5.8 mph - N/A   Overcast
7:20 PM 41.0 °F 38.0 °F 32.0 °F 70% 30.01 in 5.6 mi NNW 4.6 mph - N/A   Overcast
7:50 PM 39.2 °F 35.9 °F 33.8 °F 81% 30.01 in 5.6 mi NNW 4.6 mph - N/A   Overcast
8:00 PM 40 °F - 33 °F 67% 30.06 in 6 mi NNW 4.5 mph - -   Overcast
8:20 PM 39.2 °F 35.9 °F 32.0 °F 75% 30.04 in 5.6 mi WNW 4.6 mph - N/A   Overcast
8:50 PM 39.2 °F 37.0 °F 32.0 °F 75% 30.04 in 5.6 mi WNW 3.5 mph - N/A   Overcast
9:20 PM 39.2 °F - 33.8 °F 81% 30.04 in 5.6 mi West 2.3 mph - N/A   Overcast
9:50 PM 39.2 °F 37.0 °F 33.8 °F 81% 30.06 in 5.6 mi West 3.5 mph - N/A   Mostly Cloudy
10:20 PM 39.2 °F 37.0 °F 33.8 °F 81% 30.06 in 5.6 mi West 3.5 mph - N/A   Mostly Cloudy
10:50 PM 39.2 °F 37.0 °F 32.0 °F 75% 30.06 in 5.6 mi West 3.5 mph - N/A   Mostly Cloudy
11:00 PM 39 °F - 32 °F 69% 30.12 in 6 mi West 4.5 mph - -   Overcast
11:20 PM 39.2 °F 37.0 °F 32.0 °F 75% 30.06 in 5.6 mi West 3.5 mph - N/A   Mostly Cloudy
11:50 PM 39.2 °F 35.9 °F 33.8 °F 81% 30.06 in 5.0 mi WNW 4.6 mph - N/A   Mostly Cloudy